Flag for U.S.A. Weather past 2 weeks in Monterey, California, U.S.A.

Now
60 °F

Passing clouds.


Feels Like: 60 °F
Forecast: 59 / 63 °F
Wind: No wind

Location: Monterey Peninsula Airport

Current Time: Dec 21, 2014 at 9:30:53 AM

Latest Report: Dec 21, 2014 at 8:54 AM


Visibility: 10 mi

Pressure: 30.34 "Hg

Humidity: 83%

Dew point: 55 °F

Location of MontereyLocation

Historic Weather in Monterey — Graph

°F

Monterey temperature yesterday

Maximum temperature yesterday: 61 °F (at 10:54 AM)
Minimum temperature yesterday: 56 °F (at 3:54 AM)
Average temperature yesterday: 58 °F

Past Weeks' High & Low Weather Summary

 TemperatureHumidityPressure
High69 °F (Dec 11, 8:54 AM)100% (Dec 20, 1:54 AM)30.34 "Hg (Dec 20, 1:54 AM)
Low46 °F (Dec 13, 11:54 PM)48% (Dec 16, 1:54 PM)29.63 "Hg (Dec 11, 2:00 PM)
Average56 °F82%30.09 "Hg
* Reported Dec 6 7:54 AM — Dec 21 7:54 AM, Monterey, Weather by CustomWeather, © 2014

Note: Actual official high and low records may vary slightly from our data, if they occured in-between our weather recording intervals... More about our weather records

Advertising

Monterey weather history for previous 24 hours

 ConditionsComfort  
Time TempWeatherWind HumidityBarometerVisibility
7:54 AM
Dec 21
56 °FPartly sunny.No wind93%30.34 "Hg10 mi
6:54 AM56 °FOvercast.No wind93%30.33 "Hg10 mi
5:54 AM56 °FOvercast.No wind93%30.32 "Hg10 mi
4:54 AM56 °FOvercast.No wind93%30.31 "Hg10 mi
3:54 AM57 °FLow clouds.No wind90%30.32 "Hg10 mi
2:54 AM56 °FLow clouds.No wind90%30.33 "Hg10 mi
1:54 AM58 °FOvercast.No wind78%30.31 "Hg9 mi
12:54 AM57 °FOvercast.3 mph78%30.31 "Hg10 mi
11:54 PM
Dec 20
56 °FOvercast.No wind81%30.32 "Hg10 mi
10:54 PM57 °FOvercast.No wind81%30.32 "Hg10 mi
9:54 PM57 °FPassing clouds.No wind81%30.32 "Hg10 mi
8:54 PM58 °FMostly cloudy.5 mph75%30.31 "Hg10 mi
7:54 PM58 °FMostly cloudy.No wind78%30.30 "Hg10 mi
6:54 PM58 °FOvercast.No wind84%30.29 "Hg10 mi
5:54 PM59 °FMostly cloudy.No wind84%30.28 "Hg10 mi
4:54 PM60 °FOvercast.No wind78%30.27 "Hg9 mi
3:54 PM60 °FOvercast.No wind75%30.25 "Hg10 mi
2:54 PM61 °FMostly cloudy.3 mph75%30.25 "Hg10 mi
1:54 PM60 °FOvercast.3 mph78%30.24 "Hg10 mi
12:54 PM61 °FBroken clouds.5 mph72%30.23 "Hg10 mi
11:54 AM61 °FBroken clouds.5 mph75%30.26 "Hg10 mi
10:54 AM61 °FPartly sunny.No wind78%30.27 "Hg10 mi
9:54 AM59 °FLight rain. Broken clouds.No wind87%30.27 "Hg10 mi
Weather by CustomWeather, © 2014

See weather overviewHow to use our weather pages